Stations météo

réclame
Mon MeteoGroup
Geilenkirchen, Allemagne (10500): Température de l'air & dewpoint: 15.07.2019 19:00:00 - 21.07.2019 19:00:00 (CEST)Geilenkirchen, Allemagne (10500): Vitesse du vent: 15.07.2019 19:00:00 - 21.07.2019 19:00:00 (CEST)Geilenkirchen, Allemagne (10500): Direction du vent: 15.07.2019 19:00:00 - 21.07.2019 19:00:00 (CEST)Geilenkirchen, Allemagne (10500): reduced air pressure: 15.07.2019 19:00:00 - 21.07.2019 19:00:00 (CEST)Geilenkirchen, Allemagne (10500): visibility: 15.07.2019 19:00:00 - 21.07.2019 19:00:00 (CEST)
Date & Time tt [°C] td [°C] ff [km/h] ff [knt] dd ppp [hPa] vv [km]
21.07.2019 19:00:00 - - - - - - -
21.07.2019 18:00:00 - - - - - - -
21.07.2019 17:00:00 - - - - - - -
21.07.2019 16:00:00 - - - - - - -
21.07.2019 15:00:00 - - - - - - -
21.07.2019 14:00:00 - - - - - - -
21.07.2019 13:00:00 - - - - - - -
21.07.2019 12:00:00 - - - - - - -
21.07.2019 11:00:00 - - - - - - -
21.07.2019 10:00:00 - - - - - - -
21.07.2019 09:00:00 - - - - - - -
21.07.2019 08:00:00 - - - - - - -
21.07.2019 07:00:00 - - - - - - -
21.07.2019 06:00:00 - - - - - - -
21.07.2019 05:00:00 - - - - - - -
21.07.2019 04:00:00 - - - - - - -
21.07.2019 03:00:00 - - - - - - -
21.07.2019 02:00:00 - - - - - - -
21.07.2019 01:00:00 - - - - - - -
21.07.2019 00:00:00 - - - - - - -
20.07.2019 23:00:00 - - - - - - -
20.07.2019 22:00:00 - - - - - - -
20.07.2019 21:00:00 - - - - - - -
20.07.2019 20:00:00 - - - - - - -
20.07.2019 19:00:00 - - - - - - -
20.07.2019 18:00:00 - - - - - - -
20.07.2019 17:00:00 - - - - - - -
20.07.2019 16:00:00 - - - - - - -
20.07.2019 15:00:00 - - - - - - -
20.07.2019 14:00:00 - - - - - - -
20.07.2019 13:00:00 - - - - - - -
20.07.2019 12:00:00 - - - - - - -
20.07.2019 11:00:00 - - - - - - -
20.07.2019 10:00:00 - - - - - - -
20.07.2019 09:00:00 - - - - - - -
20.07.2019 08:00:00 - - - - - - -
20.07.2019 07:00:00 - - - - - - -
20.07.2019 06:00:00 - - - - - - -
20.07.2019 05:00:00 - - - - - - -
20.07.2019 04:00:00 - - - - - - -
20.07.2019 03:00:00 - - - - - - -
20.07.2019 02:00:00 - - - - - - -
20.07.2019 01:00:00 - - - - - - -
20.07.2019 00:00:00 - - - - - - -
19.07.2019 23:00:00 - - - - - - -
19.07.2019 22:00:00 - - - - - - -
19.07.2019 21:00:00 - - - - - - -
19.07.2019 20:00:00 - - - - - - -
19.07.2019 19:00:00 24,9 10,7 11 6 SW 1013,6 10
19.07.2019 18:00:00 25,1 11,1 9 5 WSW 1013,9 10
19.07.2019 17:00:00 25,0 11,7 15 8 WSW 1014,2 10
19.07.2019 16:00:00 24,2 11,7 13 7 W 1014,5 10
19.07.2019 15:00:00 23,6 11,9 11 6 WSW 1014,6 10
19.07.2019 14:00:00 23,1 13,2 13 7 W 1014,5 10
19.07.2019 13:00:00 22,8 13,0 15 8 SW 1014,6 10
19.07.2019 12:00:00 20,6 14,1 11 6 WSW 1014,9 10
19.07.2019 11:00:00 19,9 13,3 13 7 WSW 1014,8 10
19.07.2019 10:00:00 19,1 12,7 15 8 WSW 1014,7 10
19.07.2019 09:00:00 19,0 13,9 15 8 W 1014,6 10
19.07.2019 08:00:00 18,1 14,5 9 5 WSW 1014,2 10
19.07.2019 07:00:00 17,7 15,7 5 3 SSW 1013,7 10
19.07.2019 06:00:00 17,6 15,6 0 0 N 1013,7 10
19.07.2019 05:00:00 17,8 15,4 8 4 SW 1013,7 10
19.07.2019 04:00:00 18,0 15,1 7 4 SW 1013,6 25
19.07.2019 03:00:00 18,8 14,9 8 4 SW 1013,3 10
19.07.2019 02:00:00 19,2 14,8 5 3 SW 1013,2 10
19.07.2019 01:00:00 19,5 14,7 8 4 WSW 1013,2 10
19.07.2019 00:00:00 19,8 14,3 8 4 WSW 1013,0 10
18.07.2019 23:00:00 20,2 14,1 18 10 W 1013,1 25
18.07.2019 22:00:00 21,4 13,6 21 11 W 1012,5 10
18.07.2019 21:00:00 22,3 13,3 11 6 WSW 1011,7 10
18.07.2019 20:00:00 22,7 12,7 16 9 W 1011,7 10
18.07.2019 19:00:00 23,4 11,8 22 12 W 1011,7 10
18.07.2019 18:00:00 23,6 12,4 22 12 W 1011,5 10
18.07.2019 17:00:00 24,4 13,9 21 11 W 1011,4 10
18.07.2019 16:00:00 24,4 13,2 22 12 W 1011,3 10
18.07.2019 15:00:00 23,8 12,6 21 11 WSW 1011,5 10
18.07.2019 14:00:00 23,4 12,4 8 4 SW 1011,8 10
18.07.2019 13:00:00 24,0 11,4 15 8 SW 1011,8 10
18.07.2019 12:00:00 23,4 11,0 18 10 W 1011,7 10
18.07.2019 11:00:00 22,1 12,0 16 9 WSW 1011,9 10
18.07.2019 10:00:00 20,6 12,6 15 8 WSW 1012,0 10
18.07.2019 09:00:00 19,4 12,0 8 4 SW 1011,9 10
18.07.2019 08:00:00 17,3 11,1 4 2 E 1011,9 10
18.07.2019 07:00:00 15,2 11,0 2 1 ENE 1012,0 10
18.07.2019 06:00:00 14,7 11,1 2 1 E 1012,1 10
18.07.2019 05:00:00 15,2 11,3 4 2 E 1012,4 10
18.07.2019 04:00:00 15,6 12,6 2 1 E 1012,7 10
18.07.2019 03:00:00 15,8 11,5 4 2 E 1013,0 10
18.07.2019 02:00:00 16,4 11,5 8 4 E 1013,2 10
18.07.2019 01:00:00 17,4 11,6 4 2 ESE 1013,3 10
18.07.2019 00:00:00 16,4 11,6 2 1 E 1013,4 10
17.07.2019 23:00:00 17,4 11,8 4 2 E 1013,6 10
17.07.2019 22:00:00 18,7 11,9 2 1 ESE 1013,7 10
17.07.2019 21:00:00 21,8 11,3 4 2 SSE 1013,6 10
17.07.2019 20:00:00 22,9 10,8 5 3 E 1013,5 10
17.07.2019 19:00:00 23,9 11,1 9 5 NE 1013,7 10
17.07.2019 18:00:00 23,9 11,6 5 3 NNE 1014,3 10
17.07.2019 17:00:00 23,8 12,0 2 1 NE 1014,8 10
17.07.2019 16:00:00 23,4 12,6 11 6 ENE 1015,0 10
17.07.2019 15:00:00 22,6 11,9 8 4 ENE 1015,4 10
17.07.2019 14:00:00 21,3 12,3 5 3 NE 1015,8 10
17.07.2019 13:00:00 22,0 12,3 8 4 NNW 1016,2 10
17.07.2019 12:00:00 18,4 12,5 4 2 - 1016,3 10
17.07.2019 11:00:00 18,7 12,1 4 2 NE 1016,6 10
17.07.2019 10:00:00 16,1 12,4 2 1 - 1016,8 5
17.07.2019 09:00:00 13,8 11,7 0 0 N 1016,8 3,5
17.07.2019 08:00:00 10,5 9,8 0 0 N 1016,8 3,5
17.07.2019 07:00:00 9,1 8,7 2 1 S 1017,0 3,0
17.07.2019 06:00:00 8,6 8,5 2 1 S 1017,0 2,0
17.07.2019 05:00:00 9,1 8,8 4 2 SSE 1017,1 4,5
17.07.2019 04:00:00 9,4 8,8 2 1 - 1017,3 6
17.07.2019 03:00:00 9,6 8,9 2 1 E 1017,6 10
17.07.2019 02:00:00 10,3 9,5 4 2 SSE 1017,7 10
17.07.2019 01:00:00 11,3 10,0 0 0 N 1017,9 10
17.07.2019 00:00:00 12,4 10,7 2 1 S 1017,9 10
16.07.2019 23:00:00 13,7 11,0 4 2 S 1018,1 10
16.07.2019 22:00:00 15,6 11,7 0 0 N 1018,0 10
16.07.2019 21:00:00 19,0 11,1 4 2 NW 1017,9 10
16.07.2019 20:00:00 19,5 11,0 4 2 NW 1018,1 10
16.07.2019 19:00:00 18,6 10,8 11 6 WNW 1018,3 10
16.07.2019 18:00:00 19,3 11,0 7 4 NNW 1018,5 15
16.07.2019 17:00:00 18,5 10,6 11 6 WNW 1019,0 15
16.07.2019 16:00:00 17,6 10,9 7 4 NW 1019,4 15
16.07.2019 15:00:00 17,0 11,0 7 4 WNW 1019,6 15
16.07.2019 14:00:00 16,3 10,7 11 6 NNW 1020,0 15
16.07.2019 13:00:00 16,0 10,3 11 6 WNW 1020,1 10
16.07.2019 12:00:00 15,5 10,4 9 5 WNW 1020,3 10
16.07.2019 11:00:00 14,9 10,9 9 5 NW 1020,3 10
16.07.2019 10:00:00 14,2 11,2 8 4 W 1020,5 10
16.07.2019 09:00:00 13,6 11,7 5 3 W 1020,3 10
16.07.2019 08:00:00 12,7 11,7 2 1 WSW 1020,2 10
16.07.2019 07:00:00 11,9 11,2 2 1 S 1020,0 10
16.07.2019 06:00:00 10,5 10,0 0 0 S 1019,9 10
16.07.2019 05:00:00 10,9 10,9 0 0 N 1020,0 10
16.07.2019 04:00:00 10,9 9,9 0 0 N 1020,2 10
16.07.2019 03:00:00 12,6 11,3 4 2 W 1020,3 10
16.07.2019 02:00:00 12,5 11,2 9 5 WNW 1020,4 10
16.07.2019 01:00:00 13,7 11,5 8 4 WNW 1020,2 10
16.07.2019 00:00:00 14,3 11,4 5 3 NW 1020,2 10
15.07.2019 23:00:00 15,4 11,3 8 4 WNW 1020,1 10
15.07.2019 22:00:00 15,7 10,8 4 2 WNW 1020,0 10
15.07.2019 21:00:00 16,5 10,2 4 2 NW 1019,8 10
15.07.2019 20:00:00 17,2 10,2 9 5 NW 1019,9 10
15.07.2019 19:00:00 17,3 10,8 9 5 NW 1020,1 10

tt = Température de l'air
td = dewpoint
ff = Vitesse du vent
dd = Direction du vent
ppp = reduced air pressure
vv = visibility

stations d'obs. à proximité